Pagina principale
METAR-TAF:

METAR-TAF

Aeroporti :

Kélibia, Tunisia

latitudine: 36-51N, longitudine: 011-05E, altezza: 29 m

Osservazione

Il bollettino è stato emesso 1 ora e 4 minuti fa, alle 15:00 UTC
Vento 8 kt da nord-est
Temperature 23°C
Umidità 61%
Pressione 1013 hPa
Visibilità 10 km o più
Poco nuvoloso ad un'altezza di 2000 ft

METAR: DTTL 151500Z 05008KT 9999 FEW020 23/15 Q1013

Ora: 17:04 (16:04 UTC)


TAF: mancante

Osservazioni e previsioni meteorologiche di più di 4000 aeroporti (messaggi METAR e TAF).

Le stazioni disponibili sono rappresentate dai dischi gialli e rossi sulla carta.

Puntare il mouse per vedere il nome della stazione.

Clicca sopra per visualizzare le osservazioni e previsioni meteorologiche.

Per cambiare la mappa : fare clic sui pulsanti verdi con una croce nera per ingrandire, il pulsante verde con un trattino per diminuire, o sulla freccia verde per le mappe adiacenti.


METAR-TAF: